Voltar ao catálogo

QIANFAN-73

AtivoComunicaçõesPO
NORAD 63159·PAYLOAD·🇨🇳 China

Lançado Mar 11, 2025 de Wenchang Space Launch Site

Loading…

Próximas Passagens (próximas 24 horas)

TLE

AtualizadoSource: Space-Track

Época: Sep 14, 2026, 13:32 UTC

1 63159U 25046A   26257.56389287  .00000033  00000-0  31693-4 0  9993
2 63159  88.9650 291.3865 0016478  52.2184 308.0457 13.51025047 84652

Acompanhe QIANFAN-73 em tempo real com AllMySat

Download on the App Store